When you browse on this site, cookies collect data to enhance your experience and personalize the content and advertising you see.
Visit our Privacy Policy to learn more. By continuing to use the site, you agree to this use of cookies and data.
  • In Lithuania
  • List of Countries
  • For 7 days
  • Water Temperature
  • Satellite Maps
  • Weather Map
  • Weather Widgets
  • user-avatar
    Login

    Hourly Weather Kaprun

    Today, 22 May, Wednesday

    Time Temperature Precipitation Wind Pressure Humidity
    00:00 +1°C° 0.5 mm 2 mps 593 mmHg 96%
    01:00 +1°C° 0 mm 2 mps 593 mmHg 96%
    02:00 +1°C° 0.5 mm 2 mps 593 mmHg 96%
    03:00 +1°C° 0.5 mm 2 mps 594 mmHg 96%
    04:00 +1°C° 0.5 mm 2 mps 594 mmHg 96%
    05:00 +1°C° 0.8 mm 2 mps 594 mmHg 97%
    06:00 +1°C° 0.8 mm 2 mps 594 mmHg 97%
    07:00 +3°C° 0 mm 1 mps 594 mmHg 97%
    08:00 +2°C° 0.5 mm 2 mps 594 mmHg 97%
    09:00 +2°C° 0.5 mm 2 mps 595 mmHg 96%
    10:00 +3°C° 0.5 mm 2 mps 595 mmHg 96%
    11:00 +3°C° 0.1 mm 2 mps 595 mmHg 93%
    12:00 +4°C° 0.1 mm 2 mps 596 mmHg 90%
    13:00 +4°C° 0 mm 2 mps 596 mmHg 90%
    14:00 +4°C° 0.1 mm 2 mps 596 mmHg 89%
    15:00 +4°C° 0.1 mm 2 mps 596 mmHg 88%
    16:00 +3°C° 0.1 mm 3 mps 596 mmHg 87%
    17:00 +4°C° 0.1 mm 2 mps 596 mmHg 90%
    18:00 +3°C° 0.1 mm 2 mps 596 mmHg 93%
    19:00 +3°C° 0.1 mm 2 mps 596 mmHg 96%
    20:00 +2°C° 0 mm 2 mps 596 mmHg 96%
    21:00 +3°C° 0 mm 1 mps 596 mmHg 97%
    22:00 +2°C° 0 mm 1 mps 596 mmHg 98%
    23:00 +2°C° 0 mm 1 mps 596 mmHg 98%

    Tomorrow, 23 May, Thursday

    Time Temperature Precipitation Wind Pressure Humidity
    00:00 +1°C° 0 mm 1 mps 596 mmHg 97%
    01:00 +1°C° 0 mm 1 mps 596 mmHg 97%
    02:00 +1°C° 0 mm 1 mps 596 mmHg 97%
    03:00 +1°C° 0 mm 1 mps 596 mmHg 97%
    04:00 +1°C° 0 mm 1 mps 596 mmHg 97%
    05:00 +2°C° 0 mm 1 mps 597 mmHg 94%
    06:00 +3°C° 0 mm 1 mps 597 mmHg 92%
    07:00 +4°C° 0 mm 1 mps 597 mmHg 90%
    08:00 +4°C° 0 mm 2 mps 598 mmHg 86%
    09:00 +5°C° 0 mm 2 mps 598 mmHg 81%
    10:00 +6°C° 0 mm 2 mps 598 mmHg 77%
    11:00 +7°C° 0 mm 2 mps 598 mmHg 73%
    12:00 +8°C° 0 mm 2 mps 599 mmHg 68%
    13:00 +9°C° 0 mm 2 mps 599 mmHg 63%
    14:00 +9°C° 0 mm 2 mps 599 mmHg 62%
    15:00 +9°C° 0 mm 3 mps 599 mmHg 61%
    16:00 +9°C° 0 mm 3 mps 598 mmHg 61%
    17:00 +7°C° 0 mm 2 mps 598 mmHg 69%
    18:00 +6°C° 0 mm 2 mps 597 mmHg 76%
    19:00 +4°C° 0 mm 2 mps 596 mmHg 84%
    20:00 +4°C° 0 mm 1 mps 596 mmHg 88%
    21:00 +2°C° 0 mm 1 mps 596 mmHg 92%
    22:00 +1°C° 0 mm 1 mps 595 mmHg 96%
    23:00 +1°C° 0 mm 1 mps 595 mmHg 95%

    Day after tomorrow, 24 May, Friday

    Time Temperature Precipitation Wind Pressure Humidity
    00:00 +1°C° 0 mm 1 mps 595 mmHg 94%
    01:00 +1°C° 0 mm 1 mps 595 mmHg 93%
    02:00 +1°C° 0 mm 1 mps 595 mmHg 89%
    03:00 0°C° 0 mm 1 mps 595 mmHg 86%
    04:00 0°C° 0 mm 1 mps 595 mmHg 83%
    05:00 +3°C° 0 mm 1 mps 596 mmHg 75%
    06:00 +4°C° 0 mm 0 mps 596 mmHg 66%
    07:00 +6°C° 0 mm 0 mps 597 mmHg 58%
    08:00 +7°C° 0 mm 0 mps 598 mmHg 52%
    09:00 +10°C° 0 mm 1 mps 598 mmHg 45%
    10:00 +12°C° 0 mm 1 mps 599 mmHg 39%
    11:00 +12°C° 0 mm 2 mps 599 mmHg 39%
    12:00 +13°C° 0 mm 2 mps 599 mmHg 39%
    13:00 +14°C° 0 mm 2 mps 599 mmHg 39%
    14:00 +13°C° 0 mm 2 mps 598 mmHg 43%
    15:00 +13°C° 0 mm 2 mps 598 mmHg 48%
    16:00 +12°C° 0 mm 2 mps 598 mmHg 52%
    17:00 +10°C° 0.2 mm 2 mps 597 mmHg 63%
    18:00 +8°C° 0.2 mm 2 mps 596 mmHg 73%
    19:00 +8°C° 0.2 mm 1 mps 596 mmHg 84%
    20:00 +6°C° 0.1 mm 1 mps 595 mmHg 88%
    21:00 +5°C° 0.1 mm 1 mps 595 mmHg 91%
    22:00 +4°C° 0.1 mm 1 mps 595 mmHg 95%
    23:00 +3°C° 0.1 mm 1 mps 595 mmHg 95%

    25 May, Saturday

    Time Temperature Precipitation Wind Pressure Humidity
    00:00 +2°C° 0.1 mm 0 mps 595 mmHg 95%
    01:00 +2°C° 0.1 mm 0 mps 594 mmHg 95%
    02:00 +3°C° 0 mm 1 mps 594 mmHg 95%
    03:00 +3°C° 0 mm 1 mps 594 mmHg 94%
    04:00 +3°C° 0 mm 1 mps 594 mmHg 94%
    05:00 +4°C° 0.1 mm 0 mps 595 mmHg 89%
    06:00 +6°C° 0.1 mm 0 mps 596 mmHg 83%
    07:00 +7°C° 0.1 mm 0 mps 597 mmHg 78%
    08:00 +8°C° 0.5 mm 0 mps 597 mmHg 77%
    09:00 +9°C° 0.5 mm 1 mps 597 mmHg 75%
    10:00 +10°C° 0.5 mm 1 mps 597 mmHg 74%
    11:00 +10°C° 1.6 mm 1 mps 597 mmHg 78%
    12:00 +10°C° 1.6 mm 1 mps 597 mmHg 81%
    13:00 +8°C° 1.6 mm 0 mps 597 mmHg 85%
    14:00 +8°C° 2.3 mm 0 mps 596 mmHg 88%
    15:00 +7°C° 2.3 mm 0 mps 596 mmHg 90%
    16:00 +7°C° 2.3 mm 0 mps 596 mmHg 93%
    17:00 +6°C° 1.5 mm 0 mps 596 mmHg 94%
    18:00 +6°C° 1.5 mm 0 mps 596 mmHg 96%
    19:00 +5°C° 1.5 mm 0 mps 595 mmHg 97%
    20:00 +5°C° 0.7 mm 0 mps 596 mmHg 96%
    21:00 +5°C° 0.7 mm 0 mps 596 mmHg 96%
    22:00 +5°C° 0.7 mm 1 mps 596 mmHg 96%
    23:00 +5°C° 0.2 mm 1 mps 596 mmHg 95%

    26 May, Sunday

    Time Temperature Precipitation Wind Pressure Humidity
    00:00 +5°C° 0.2 mm 1 mps 596 mmHg 95%
    01:00 +5°C° 0.2 mm 1 mps 595 mmHg 95%
    02:00 +4°C° 0.1 mm 1 mps 595 mmHg 95%
    03:00 +4°C° 0.1 mm 1 mps 595 mmHg 96%
    04:00 +3°C° 0.1 mm 0 mps 595 mmHg 96%
    05:00 +5°C° 0 mm 1 mps 595 mmHg 95%
    06:00 +6°C° 0 mm 1 mps 596 mmHg 95%
    07:00 +7°C° 0 mm 1 mps 596 mmHg 94%
    08:00 +7°C° 0.1 mm 1 mps 597 mmHg 92%
    09:00 +7°C° 0.1 mm 2 mps 597 mmHg 91%
    10:00 +7°C° 0.1 mm 2 mps 597 mmHg 89%
    11:00 +8°C° 0.2 mm 2 mps 597 mmHg 83%
    12:00 +9°C° 0.2 mm 2 mps 598 mmHg 78%
    13:00 +10°C° 0.2 mm 2 mps 598 mmHg 73%
    14:00 +10°C° 0.6 mm 2 mps 598 mmHg 74%
    15:00 +10°C° 0.6 mm 3 mps 598 mmHg 76%
    16:00 +10°C° 0.6 mm 3 mps 598 mmHg 77%
    17:00 +9°C° 0.4 mm 3 mps 597 mmHg 83%
    18:00 +8°C° 0.4 mm 2 mps 597 mmHg 89%
    19:00 +6°C° 0.4 mm 2 mps 597 mmHg 95%
    20:00 +6°C° 0 mm 2 mps 597 mmHg 96%
    21:00 +6°C° 0 mm 1 mps 596 mmHg 97%
    22:00 +5°C° 0 mm 1 mps 596 mmHg 98%
    23:00 +5°C° 0.1 mm 1 mps 596 mmHg 98%

    27 May, Monday

    Time Temperature Precipitation Wind Pressure Humidity
    00:00 +5°C° 0.1 mm 1 mps 596 mmHg 98%
    01:00 +3°C° 0.1 mm 0 mps 596 mmHg 97%
    02:00 +4°C° 0.2 mm 1 mps 595 mmHg 97%
    03:00 +4°C° 0.2 mm 1 mps 595 mmHg 96%
    04:00 +4°C° 0.2 mm 1 mps 595 mmHg 95%
    05:00 +5°C° 0.6 mm 1 mps 595 mmHg 93%
    06:00 +5°C° 0.6 mm 0 mps 596 mmHg 92%
    07:00 +6°C° 0.6 mm 0 mps 596 mmHg 90%
    08:00 +7°C° 0.6 mm 0 mps 596 mmHg 87%
    09:00 +9°C° 0.6 mm 1 mps 597 mmHg 84%
    10:00 +9°C° 0.6 mm 1 mps 597 mmHg 81%
    11:00 +9°C° 1.1 mm 1 mps 597 mmHg 83%
    12:00 +9°C° 1.1 mm 1 mps 596 mmHg 86%
    13:00 +9°C° 1.1 mm 1 mps 596 mmHg 88%
    14:00 +9°C° 2.3 mm 1 mps 595 mmHg 90%
    15:00 +8°C° 2.3 mm 1 mps 595 mmHg 92%
    16:00 +8°C° 2.3 mm 1 mps 594 mmHg 94%
    17:00 +7°C° 1.9 mm 1 mps 594 mmHg 95%
    18:00 +7°C° 1.9 mm 1 mps 594 mmHg 95%
    19:00 +5°C° 1.9 mm 0 mps 594 mmHg 96%
    20:00 +6°C° 0.9 mm 1 mps 594 mmHg 96%
    21:00 +6°C° 0.9 mm 1 mps 593 mmHg 96%
    22:00 +5°C° 0.9 mm 1 mps 593 mmHg 96%
    23:00 +5°C° 0.3 mm 1 mps 593 mmHg 96%
    Show more